Mount Holly, NJ

3:43 AM EDT on May 25, 2018 (GMT -0400)
South Jersey Regional

Weather History for KVAY - November, 2012

Change the Weather History Date:

Thursday, November 29, 2012

  Actual Average (KPNE) Record (KPNE)
Temperature  
Mean Temperature 36 °F -  
Max Temperature 45 °F 49 °F 70 °F (2005)
Min Temperature 28 °F 32 °F 23 °F (2014)
Degree Days  
Heating Degree Days 28    
Moisture  
Dew Point 22 °F    
Average Humidity 60    
Maximum Humidity 81    
Minimum Humidity 40    
Precipitation  
Precipitation 0.00 in - - ()
Sea Level Pressure  
Sea Level Pressure 30.36 in    
Wind  
Wind Speed 4 mph (WSW)    
Max Wind Speed 10 mph    
Max Gust Speed 17 mph    
Visibility 10 miles    
Events      
Averages and records for this station are not official NWS values.
T = Trace of Precipitation, MM = Missing Value Source: NWS Daily Summary

Daily Weather History Graph

Daily Weather History Graph

Search for Another Location

Airport or City:

Astronomy

Nov. 29, 2012 Rise Set
Actual Time 7:00 AM EST 4:35 PM EST
Civil Twilight 6:30 AM EST 5:05 PM EST
Nautical Twilight 5:56 AM EST 5:38 PM EST
Astronomical Twilight 5:24 AM EST 6:11 PM EST
Moon 5:36 PM EST (11/29) 7:45 AM EST (11/29)
Length of Visible Light 10h 34m
Length of Day
9h 34m
Full, 99% of the Moon is Illuminated
Nov 29
Full
Dec 6
Last Quarter
Dec 13
New
Dec 20
First Quarter
Dec 28
Full

Hourly Weather History & Observations

Time (EST) Temp. Windchill Dew Point Humidity Pressure Visibility Wind Dir Wind Speed Gust Speed Precip Events Conditions
12:54 AM 32.0 °F 27.5 °F 21.0 °F 64% 30.33 in 10.0 mi SW 4.6 mph - N/A   Clear
1:54 AM 30.9 °F 27.5 °F 21.0 °F 67% 30.34 in 10.0 mi WSW 3.5 mph - N/A   Clear
2:54 AM 30.9 °F 27.5 °F 21.0 °F 67% 30.35 in 10.0 mi WSW 3.5 mph - N/A   Clear
3:54 AM 30.9 °F 27.5 °F 19.9 °F 64% 30.34 in 10.0 mi WSW 3.5 mph - N/A   Clear
4:54 AM 30.9 °F 27.5 °F 21.0 °F 67% 30.34 in 10.0 mi SW 3.5 mph - N/A   Clear
5:54 AM 30.9 °F 27.5 °F 21.0 °F 67% 30.36 in 10.0 mi WSW 3.5 mph - N/A   Clear
6:54 AM 30.9 °F 27.5 °F 21.0 °F 67% 30.37 in 10.0 mi WSW 3.5 mph - N/A   Clear
7:54 AM 34.0 °F 31.0 °F 21.9 °F 61% 30.38 in 9.0 mi WSW 3.5 mph - N/A   Clear
8:54 AM 37.0 °F 31.6 °F 23.0 °F 57% 30.40 in 9.0 mi West 6.9 mph - N/A   Clear
9:54 AM 39.9 °F 35.1 °F 23.0 °F 51% 30.41 in 9.0 mi West 6.9 mph - N/A   Clear
10:54 AM 42.1 °F 36.1 °F 23.0 °F 47% 30.41 in 10.0 mi West 10.4 mph - N/A   Clear
11:54 AM 43.0 °F 37.7 °F 21.9 °F 43% 30.40 in 10.0 mi West 9.2 mph 17.3 mph N/A   Clear
12:54 PM 45.0 °F 40.1 °F 23.0 °F 42% 30.37 in 10.0 mi West 9.2 mph - N/A   Clear
1:54 PM 45.0 °F 40.6 °F 23.0 °F 42% 30.35 in 10.0 mi West 8.1 mph - N/A   Clear
2:54 PM 45.0 °F 40.6 °F 21.9 °F 40% 30.32 in 10.0 mi WSW 8.1 mph 17.3 mph N/A   Clear
3:54 PM 45.0 °F 41.2 °F 21.9 °F 40% 30.34 in 10.0 mi West 6.9 mph - N/A   Clear
4:54 PM 39.9 °F - 23.0 °F 51% 30.34 in 10.0 mi Calm Calm - N/A   Clear
5:54 PM 37.9 °F 35.5 °F 23.0 °F 55% 30.34 in 10.0 mi SW 3.5 mph - N/A   Clear
6:54 PM 34.0 °F - 23.0 °F 64% 30.35 in 10.0 mi Calm Calm - N/A   Clear
7:54 PM 30.0 °F - 23.0 °F 75% 30.36 in 10.0 mi Calm Calm - N/A   Clear
8:54 PM 30.0 °F - 23.0 °F 75% 30.36 in 10.0 mi Calm Calm - N/A   Clear
9:54 PM 28.0 °F - 23.0 °F 81% 30.36 in 9.0 mi Calm Calm - N/A   Clear
10:54 PM 30.0 °F - 23.0 °F 75% 30.35 in 9.0 mi Calm Calm - N/A   Clear
11:54 PM 32.0 °F - 25.0 °F 75% 30.36 in 10.0 mi Calm Calm - N/A   Clear